User: anonymous   Login
Location: Cointrin
(46.2167°N, 6.1167°E)
Time: 19:32:52
(UTC+00:00)
Language:

CZ-2D DEB - Orbit

View from above orbital plane
View from above orbital plane
View from above satellite
View from above satellite

Ground track
Ground track

The orbit data is extracted from the following two-line orbital elements,

1 44612U 17060E   24141.01399831  .00010187  00000-0  12307-2 0  9999
2 44612  97.6128 163.4586 0014698  92.8216 267.4682 14.83847199354002
Epoch (UTC): 20 May 2024 00:20:09
Eccentricity: 0.0014698
inclination: 97.6128°
perigee height: 607 km
apogee height: 627 km
right ascension of ascending node: 163.4586°
argument of perigee: 92.8216°
revolutions per day: 14.83847199
mean anomaly at epoch: 267.4682°
orbit number at epoch: 35400

The dashed part of the orbit path shows where the satellite is in the earth's shadow,  

DLR